Regional Weather Roundup
Issued by NWS

Home | Current Version | Previous Version | Graphics & Text | Print | Product List | Glossary On
Versions: 1 2 3 4 5 6 7 8 9 10 11 12 13 14 15 16 17 18 19 20 21 22 23 24 25 26 27 28
000
ASUS45 KTFX 042010
RWRMT
MONTANA REGIONAL WEATHER ROUNDUP
NATIONAL WEATHER SERVICE GREAT FALLS MT
200 PM MDT WED MAY 04 2016

NOTE: "FAIR" INDICATES FEW OR NO CLOUDS BELOW 12000 FEET WITH NO
SIGNIFICANT WEATHER AND/OR OBSTRUCTIONS TO VISIBILITY.

MTZ001>007-043-042100-
WEST OF THE DIVIDE

CITY           SKY/WX    TMP DP  RH WIND       PRES   REMARKS
KALISPELL      MOSUNNY   75  44  33 S10       29.94F
MISSOULA       MOSUNNY   75  39  27 VRB5      29.98F
BUTTE          SUNNY     70  26  19 W7        30.07F
MULLAN PASS    MOSUNNY   61  33  35 CALM      30.08F
ANACONDA         N/A     73  27  17 SW5G16    30.03F
DEER LODGE       N/A     73  27  17 SE8       30.02F
EUREKA           N/A     77  41  27 SW7       29.92F
HAMILTON         N/A     77  28  16 S3        29.98F
LIBBY            N/A     77  37  24 CALM      29.92F
PLAINS           N/A     78  47  33 N1        29.94
$$

MTZ008-052>055-042100-
SOUTHWEST MONTANA

CITY           SKY/WX    TMP DP  RH WIND       PRES   REMARKS
BOZEMAN        SUNNY     77  33  20 CALM      30.02F
DILLON         SUNNY     73  23  15 SW17G26   30.07F
ENNIS          MOSUNNY   73  25  16 SW16G29   30.12F
TWIN BRIDGES     N/A     74  26  16 S22       30.04
$$

MTZ009-010-012-014-046-048-049-054-042100-
EAST SLOPES AND CENTRAL MONTANA

CITY           SKY/WX    TMP DP  RH WIND       PRES   REMARKS
CUT BANK         N/A     79  36  21 W10G20    29.92F
GREAT FALLS    MOSUNNY   79  27  14 SW16      29.94F
MALMSTROM AFB  CLOUDY    77  35  21 SW12G20   29.93F
HELENA         SUNNY     79  35  20 N8        29.95F
CHOTEAU          N/A     79  30  17 S8G18     29.93F
$$

MTZ011-013-016-021-045-047-050-051-042100-
NORTH CENTRAL MONTANA

CITY           SKY/WX    TMP DP  RH WIND       PRES   REMARKS
HAVRE          SUNNY     80  40  23 S6        29.89F
LEWISTOWN      SUNNY     80  24  12 VRB3      29.98F
N BAR RANCH    PTSUNNY   81  30  16 NW9       30.01F
$$

MTZ017>020-022>027-061-062-042100-
NORTHEAST MONTANA

CITY           SKY/WX    TMP DP  RH WIND       PRES   REMARKS
GLASGOW        LGT RAIN  83  41  22 SE15      29.91F
JORDAN           N/A     82  40  22 SW17G24   29.93F
SIDNEY         SUNNY     82  39  21 S15       29.95F
WOLF POINT     SUNNY     85  41  21 S14       29.91F
POPLAR           N/A     82  37  20 S18         N/A
$$

MTZ028>42-056>058-042100-
SOUTHCENTRAL AND SOUTHEAST MONTANA

CITY           SKY/WX    TMP DP  RH WIND       PRES   REMARKS
BAKER          SUNNY     79  36  21 S16G32    30.03F
BILLINGS       MOSUNNY   80  27  14 VRB5      30.00F
LIVINGSTON     CLOUDY    79  29  16 SW17G23   30.02F
MILES CITY     SUNNY     84  37  18 SE9       29.96F
FORSYTH          N/A     82  37  20 S8        29.96F
LAUREL           N/A     80  34  19 S3        29.99F
ROUNDUP          N/A     81  35  19 S1        29.89F
$$

REGIONAL REPORTS...DAKOTAS

CITY           SKY/WX    TMP DP  RH WIND       PRES   REMARKS
WILLISTON      SUNNY     83  38  20 SW13G23   29.95F
MINOT          SUNNY     87  39  18 S7        29.94F
DICKINSON      MOSUNNY   77  36  22 SE8G20    30.00F
BEACH            N/A     79  34  19 S10G23    30.03F
CROSBY           N/A     84  36  17 SW21      29.94F
TIOGA            N/A     82  32  16 SW16G24   30.01F
WATFORD CITY     N/A     82  37  20 S16       29.97F
BISMARCK       SUNNY     77  41  27 SE7       30.02F
GRAND FORKS    MOSUNNY   67  33  28 VRB6      30.02F
FARGO          SUNNY     69  31  24 NW12G18   30.02F
BUFFALO SD       N/A     78  37  22 S13       30.00F
RAPID CITY     SUNNY     76  43  30 S10       30.09F
$$

REGIONAL REPORTS...WYOMING/IDAHO/WASHINGTON

CITY           SKY/WX    TMP DP  RH WIND       PRES   REMARKS
GILLETTE       SUNNY     75  35  23 SW9       30.07F
SHERIDAN       SUNNY     79  38  22 E8        30.03F
BUFFALO WY     SUNNY     75  34  22 VRB7G16   30.09F
CODY           SUNNY     75  28  17 SE7       30.07F
YELLOWSTONE LA   N/A     62  23  22 VRB3      30.27F
IDAHO FALLS    MOSUNNY   75  32  20 SW12G17   30.09F
SALMON         MOSUNNY   73  30  20 S8        29.99F
BOISE          PTSUNNY   82  32  16 S10G22    29.91F
SPOKANE        PTSUNNY   74  45  35 VRB6      29.96F
$$

REGIONAL REPORTS...ALBERTA

CITY           SKY/WX    TMP DP  RH WIND       PRES   REMARKS
EDMONTON       SUNNY     81  34  18 W10       29.74F
CALGARY        PTSUNNY   79  28  15 SW8       29.84F
LETHBRIDGE     PTSUNNY   82  32  16 W18G25    29.86F
MEDICINE HAT   MOSUNNY   84  37  18 SW9       29.84F
WATERTON GATE    N/A     70  34  26 SW14G21     N/A
CARDSTON         N/A     79  32  18 SW12G20     N/A
MILK RIVER       N/A     81  37  21 W7          N/A
ONEFOUR          N/A     81  36  19 S12G18      N/A
$$

REGIONAL REPORTS...SASKATCHEWAN

CITY           SKY/WX    TMP DP  RH WIND       PRES   REMARKS
SWIFT CURRENT  SUNNY     84  30  14 W10G22    29.86F
REGINA         MOSUNNY   86  37  17 SW13G23   29.84F
SASKATOON      SUNNY     88  30  12 SW18G28   29.74F
CYPRESS HILLS    N/A     77  36  22 SW9         N/A
VAL MARIE        N/A     82  36  18 S12G17      N/A
ROCKGLEN         N/A     81  37  21 SW15G21     N/A
ASSINIBOIA       N/A     84  30  14 W13G18      N/A
$$




USA.gov is the U.S. government's official web portal to all federal, state and local government web resources and services.